DL9BGG-13 Weather Reports


time (UTC)temp
F
wind
direction
speed
knots
gust
knots
rain 1hr
in
rain 24hr
in
rain mn
in
humidity
%
barometer
mb
20260504205701 49 22 0.9 0.0 0.00 0.00 0.00 85 1059.9
20260504205542 49 0 6.1 0.0 0.00 0.00 0.00 85 1059.9
20260504205435 48 45 3.5 0.0 0.00 0.00 0.00 85 1059.8
20260504205325 48 22 5.2 0.0 0.00 0.00 0.00 85 1059.8
20260504205218 48 22 4.3 0.0 0.00 0.00 0.00 85 1059.9
20260504205113 48 45 1.7 0.0 0.00 0.00 0.00 85 1059.9
20260504205001 48 22 3.5 0.0 0.00 0.00 0.00 85 1059.8
20260504204839 48 22 3.5 0.0 0.00 0.00 0.00 85 1059.9
20260504204726 48 22 7.0 0.0 0.00 0.00 0.00 85 1059.9
20260504204612 48 22 0.0 0.0 0.00 0.00 0.00 85 1059.8
20260504204451 48 22 2.6 0.0 0.00 0.00 0.00 85 1059.9
20260504204338 48 22 0.0 0.0 0.00 0.00 0.00 85 1059.9
20260504204234 48 0 2.6 0.0 0.00 0.00 0.00 85 1059.9
20260504204127 48 45 6.1 0.0 0.00 0.00 0.00 85 1059.7
20260504204006 48 22 4.3 0.0 0.00 0.00 0.00 85 1059.8
20260504203845 48 45 3.5 0.0 0.00 0.00 0.00 85 1059.8
20260504203724 48 22 1.7 0.0 0.00 0.00 0.00 85 1059.7
20260504203621 48 90 0.0 0.0 0.00 0.00 0.00 85 1059.8
20260504203506 48 45 3.5 0.0 0.00 0.00 0.00 86 1059.8
20260504203353 48 45 4.3 0.0 0.00 0.00 0.00 86 1059.7
20260504203248 48 22 2.6 0.0 0.00 0.00 0.00 86 1059.8
20260504203126 48 22 2.6 0.0 0.00 0.00 0.00 86 1059.8
20260504203006 48 22 5.2 0.0 0.00 0.00 0.00 86 1059.7
20260504202852 48 22 6.1 0.0 0.00 0.00 0.00 86 1059.7
20260504202730 48 0 1.7 0.0 0.00 0.00 0.00 86 1059.8
20260504202609 48 45 2.6 0.0 0.00 0.00 0.00 87 1059.8
20260504202448 48 45 0.0 0.0 0.00 0.00 0.00 87 1059.8
20260504202335 48 22 5.2 0.0 0.00 0.00 0.00 87 1059.8
20260504202232 48 45 2.6 0.0 0.00 0.00 0.00 87 1059.8
20260504202125 48 22 6.1 0.0 0.00 0.00 0.00 87 1059.8
20260504202005 48 22 0.0 0.0 0.00 0.00 0.00 87 1059.9
20260504201901 48 22 1.7 0.0 0.00 0.00 0.00 87 1059.9
20260504201755 48 45 2.6 0.0 0.00 0.00 0.00 87 1059.9
20260504201649 48 45 5.2 0.0 0.00 0.00 0.00 87 1059.9
20260504201538 48 22 7.8 0.0 0.00 0.00 0.00 87 1059.8
20260504201431 48 22 3.5 0.0 0.00 0.00 0.00 87 1059.9
20260504201318 48 22 7.0 0.0 0.00 0.00 0.00 87 1059.9
20260504201213 48 22 0.9 0.0 0.00 0.00 0.00 87 1059.9
20260504201100 48 22 2.6 0.0 0.00 0.00 0.00 87 1059.9
20260504200938 48 22 5.2 0.0 0.00 0.00 0.00 87 1059.8
20260504200817 48 45 2.6 0.0 0.00 0.00 0.00 87 1059.8
20260504200656 48 67 2.6 0.0 0.00 0.00 0.00 87 1059.8
20260504200543 48 45 2.6 0.0 0.00 0.00 0.00 87 1059.8
20260504200437 48 22 6.1 0.0 0.00 0.00 0.00 87 1059.7
20260504200309 48 22 0.0 0.0 0.00 0.00 0.00 87 1059.7
20260504200206 48 0 4.3 0.0 0.00 0.00 0.00 87 1059.6
20260504200058 48 0 2.6 0.0 0.00 0.00 0.00 87 1059.7
20260504195937 48 45 3.5 0.0 0.00 0.00 0.00 87 1059.6
20260504195824 48 22 6.1 0.0 0.00 0.00 0.00 87 1059.7
20260504195703 48 22 5.2 0.0 0.00 0.00 0.00 87 1059.6
20260504195558 48 45 2.6 0.0 0.00 0.00 0.00 87 1059.6
20260504195445 48 45 6.1 0.0 0.00 0.00 0.00 87 1059.7
20260504195340 48 22 4.3 0.0 0.00 0.00 0.00 87 1059.7
20260504195227 48 45 7.8 0.0 0.00 0.00 0.00 87 1059.6
20260504195113 48 45 5.2 0.0 0.00 0.00 0.00 88 1059.6
20260504195000 48 22 2.6 0.0 0.00 0.00 0.00 88 1059.6
20260504194839 48 0 4.3 0.0 0.00 0.00 0.00 88 1059.7
20260504194717 48 45 0.0 0.0 0.00 0.00 0.00 88 1059.6
20260504194549 48 45 7.8 0.0 0.00 0.00 0.00 88 1059.7
20260504194446 48 22 4.3 0.0 0.00 0.00 0.00 88 1059.6
20260504194340 48 22 4.3 0.0 0.00 0.00 0.00 88 1059.6
20260504194235 48 22 4.3 0.0 0.00 0.00 0.00 88 1059.6
20260504194128 48 22 2.6 0.0 0.00 0.00 0.00 88 1059.7
20260504194016 48 45 5.2 0.0 0.00 0.00 0.00 88 1059.6
20260504193910 48 0 5.2 0.0 0.00 0.00 0.00 88 1059.6
20260504193751 48 45 3.5 0.0 0.00 0.00 0.00 88 1059.6
20260504193645 48 22 1.7 0.0 0.00 0.00 0.00 88 1059.5
20260504193531 48 22 3.5 0.0 0.00 0.00 0.00 87 1059.6
20260504193410 48 22 4.3 0.0 0.00 0.00 0.00 87 1059.5
20260504193304 47 22 0.0 0.0 0.00 0.00 0.00 87 1059.5
20260504193143 47 67 2.6 0.0 0.00 0.00 0.00 87 1059.6
20260504192926 47 22 0.0 0.0 0.00 0.00 0.00 87 1059.5
20260504192821 47 45 3.5 0.0 0.00 0.00 0.00 86 1059.5
20260504192715 47 0 3.5 0.0 0.00 0.00 0.00 86 1059.5
20260504192602 47 22 0.0 0.0 0.00 0.00 0.00 86 1059.4
20260504192441 47 45 5.2 0.0 0.00 0.00 0.00 86 1059.4
20260504192328 47 45 0.0 0.0 0.00 0.00 0.00 86 1059.3
20260504192215 47 22 0.0 0.0 0.00 0.00 0.00 86 1059.4
20260504192102 47 22 3.5 0.0 0.00 0.00 0.00 86 1059.4
20260504191957 47 45 4.3 0.0 0.00 0.00 0.00 86 1059.4
20260504191844 47 45 0.0 0.0 0.00 0.00 0.00 86 1059.3
20260504191730 47 45 1.7 0.0 0.00 0.00 0.00 85 1059.4
20260504191619 47 22 3.5 0.0 0.00 0.00 0.00 85 1059.4
20260504191512 48 22 0.0 0.0 0.00 0.00 0.00 85 1059.4
20260504191358 48 45 0.0 0.0 0.00 0.00 0.00 85 1059.4
20260504191229 48 45 2.6 0.0 0.00 0.00 0.00 85 1059.4
20260504191109 48 45 0.0 0.0 0.00 0.00 0.00 85 1059.4
20260504190955 48 45 0.0 0.0 0.00 0.00 0.00 85 1059.4
20260504190826 48 22 3.5 0.0 0.00 0.00 0.00 84 1059.4
20260504190713 48 22 4.3 0.0 0.00 0.00 0.00 84 1059.3
20260504190607 48 45 0.0 0.0 0.00 0.00 0.00 84 1059.2
20260504190455 48 0 1.7 0.0 0.00 0.00 0.00 84 1059.3
20260504190349 48 22 0.0 0.0 0.00 0.00 0.00 84 1059.4
20260504190228 48 22 1.7 0.0 0.00 0.00 0.00 84 1059.3
20260504190114 48 45 1.7 0.0 0.00 0.00 0.00 84 1059.4
20260504190008 49 22 3.5 0.0 0.00 0.00 0.00 84 1059.3
20260504185853 49 0 5.2 0.0 0.00 0.00 0.00 84 1059.4
20260504185739 49 45 0.0 0.0 0.00 0.00 0.00 83 1059.4
20260504185608 49 22 5.2 0.0 0.00 0.00 0.00 83 1059.3
20260504185449 49 0 4.3 0.0 0.00 0.00 0.00 83 1059.3
20260504185340 49 45 5.2 0.0 0.00 0.00 0.00 83 1059.4
20260504185226 49 22 5.2 0.0 0.00 0.00 0.00 83 1059.3
20260504185120 49 45 5.2 0.0 0.00 0.00 0.00 83 1059.3
20260504185013 49 67 4.3 0.0 0.00 0.00 0.00 82 1059.3
20260504184901 49 45 2.6 0.0 0.00 0.00 0.00 82 1059.3
20260504184754 50 67 0.0 0.0 0.00 0.00 0.00 82 1059.4
20260504184633 50 45 5.2 0.0 0.00 0.00 0.00 81 1059.3
20260504184512 50 45 1.7 0.0 0.00 0.00 0.00 81 1059.3
20260504184352 50 45 1.7 0.0 0.00 0.00 0.00 81 1059.3
20260504184246 50 45 3.5 0.0 0.00 0.00 0.00 81 1059.3
20260504184132 50 45 2.6 0.0 0.00 0.00 0.00 80 1059.3
20260504184028 50 45 3.5 0.0 0.00 0.00 0.00 80 1059.3
20260504183922 51 45 3.5 0.0 0.00 0.00 0.00 80 1059.3
20260504183816 51 22 6.1 0.0 0.00 0.00 0.00 80 1059.2
20260504183648 51 67 2.6 0.0 0.00 0.00 0.00 79 1059.2
20260504183545 51 0 0.0 0.0 0.00 0.00 0.00 79 1059.1
20260504183439 51 45 4.3 0.0 0.00 0.00 0.00 79 1059.2
20260504183333 51 22 4.3 0.0 0.00 0.00 0.00 79 1059.1
20260504183227 51 0 4.3 0.0 0.00 0.00 0.00 79 1059.1
20260504183117 52 45 0.9 0.0 0.00 0.00 0.00 79 1059.2
20260504183009 52 90 0.0 0.0 0.00 0.00 0.00 79 1059.2
20260504182848 52 45 3.5 0.0 0.00 0.00 0.00 78 1059.2
20260504182719 52 67 4.3 0.0 0.00 0.00 0.00 78 1059.2
20260504182557 52 22 1.7 0.0 0.00 0.00 0.00 78 1059.2
20260504182444 52 0 1.7 0.0 0.00 0.00 0.00 78 1059.1
20260504182338 52 45 1.7 0.0 0.00 0.00 0.00 78 1059.2
20260504182233 52 22 3.5 0.0 0.00 0.00 0.00 78 1059.2
20260504182126 52 67 4.3 0.0 0.00 0.00 0.00 78 1059.3
20260504182019 52 0 0.0 0.0 0.00 0.00 0.00 78 1059.2
20260504181906 52 22 3.5 0.0 0.00 0.00 0.00 77 1059.2
20260504181743 52 45 2.6 0.0 0.00 0.00 0.00 77 1059.1
20260504181629 52 67 6.1 0.0 0.00 0.00 0.00 78 1059.1
20260504181506 52 67 3.5 0.0 0.00 0.00 0.00 78 1059.1
20260504181353 52 45 3.5 0.0 0.00 0.00 0.00 78 1059.2
20260504181239 52 45 7.8 0.0 0.00 0.00 0.00 78 1059.1
20260504181125 52 67 5.2 0.0 0.00 0.00 0.00 78 1059.1
20260504181010 52 22 5.2 0.0 0.00 0.00 0.00 78 1059.1
20260504180855 52 0 9.6 0.0 0.00 0.00 0.00 78 1059.1
20260504180741 52 337 2.6 0.0 0.00 0.00 0.00 78 1059.1
20260504180635 52 0 5.2 0.0 0.00 0.00 0.00 78 1059.0
20260504180529 52 22 1.7 0.0 0.00 0.00 0.00 78 1059.0
20260504180423 52 22 4.3 0.0 0.00 0.00 0.00 77 1059.1
20260504180317 52 22 7.0 0.0 0.00 0.00 0.00 77 1059.2
20260504180212 52 22 5.2 0.0 0.00 0.00 0.00 77 1059.0
20260504180105 52 22 4.3 0.0 0.00 0.00 0.00 77 1059.1
20260504180000 52 0 7.8 0.0 0.00 0.02 0.00 77 1059.1
20260504175852 52 22 1.7 0.0 0.00 0.02 0.00 77 1059.1
20260504175731 53 22 3.5 0.0 0.00 0.02 0.00 77 1059.2
20260504175625 53 45 3.5 0.0 0.00 0.02 0.00 77 1059.2
20260504175513 53 45 5.2 0.0 0.00 0.02 0.00 77 1059.2
20260504175404 53 22 2.6 0.0 0.00 0.02 0.00 76 1059.2
20260504175251 53 22 6.1 0.0 0.00 0.02 0.00 76 1059.2
20260504175146 53 22 5.2 0.0 0.00 0.02 0.00 76 1059.3
20260504175039 53 45 6.1 0.0 0.00 0.02 0.00 76 1059.3
20260504174934 53 0 5.2 0.0 0.00 0.02 0.00 76 1059.3
20260504174828 53 45 7.0 0.0 0.00 0.02 0.00 76 1059.2
20260504174656 53 0 1.7 0.0 0.00 0.02 0.00 76 1059.3
20260504174543 53 22 3.5 0.0 0.00 0.02 0.00 76 1059.3
20260504174437 53 0 7.8 0.0 0.00 0.02 0.00 76 1059.4
20260504174332 53 45 7.0 0.0 0.00 0.02 0.00 76 1059.3
20260504174212 53 337 3.5 0.0 0.00 0.02 0.00 76 1059.4
20260504174058 53 0 2.6 0.0 0.00 0.02 0.00 76 1059.3
20260504173945 53 45 7.8 0.0 0.00 0.02 0.00 76 1059.3
20260504173839 53 45 7.0 0.0 0.00 0.02 0.00 76 1059.4
20260504173710 53 22 4.3 0.0 0.00 0.02 0.00 76 1059.4
20260504173557 53 0 7.8 0.0 0.00 0.02 0.00 76 1059.3
20260504173436 53 0 2.6 0.0 0.00 0.02 0.00 76 1059.3
20260504173323 53 0 4.3 0.0 0.00 0.02 0.00 76 1059.3
20260504173209 53 45 4.3 0.0 0.00 0.02 0.00 76 1059.3
20260504173041 53 45 4.3 0.0 0.00 0.02 0.00 75 1059.2
20260504172936 53 67 5.2 0.0 0.00 0.02 0.00 75 1059.2
20260504172814 54 22 6.1 0.0 0.00 0.02 0.00 75 1059.2
20260504172700 54 45 7.8 0.0 0.00 0.02 0.00 75 1059.2
20260504172549 54 22 6.1 0.0 0.00 0.02 0.00 75 1059.2
20260504172443 54 0 2.6 0.0 0.00 0.02 0.00 74 1059.2
20260504172321 54 22 6.1 0.0 0.00 0.02 0.00 74 1059.1
20260504172200 54 22 6.1 0.0 0.00 0.02 0.00 74 1059.1
20260504172047 54 0 4.3 0.0 0.00 0.02 0.00 74 1059.1
20260504171942 54 22 6.1 0.0 0.00 0.02 0.00 74 1059.1
20260504171829 54 45 7.8 0.0 0.00 0.02 0.00 74 1059.1
20260504171708 55 22 2.6 0.0 0.00 0.02 0.00 74 1059.1
20260504171539 55 22 4.3 0.0 0.00 0.02 0.00 73 1059.1
20260504171425 55 0 5.2 0.0 0.00 0.02 0.00 74 1059.1
20260504171312 55 45 7.0 0.0 0.00 0.02 0.00 74 1059.1
20260504171158 55 0 2.6 0.0 0.00 0.02 0.00 74 1059.1
20260504171045 55 0 1.7 0.0 0.00 0.02 0.00 74 1059.1
20260504170933 55 22 3.5 0.0 0.00 0.02 0.00 73 1059.1
20260504170830 55 67 5.2 0.0 0.00 0.02 0.00 73 1059.1
20260504170723 55 22 0.0 0.0 0.00 0.02 0.00 73 1059.1
20260504170610 55 0 1.7 0.0 0.00 0.02 0.00 73 1059.1
20260504170505 55 22 5.2 0.0 0.00 0.02 0.00 73 1059.1
20260504170400 55 0 7.0 0.0 0.00 0.02 0.00 73 1059.0
20260504170255 55 22 4.3 0.0 0.00 0.02 0.00 73 1059.1
20260504170141 55 22 3.5 0.0 0.00 0.02 0.00 73 1059.0
20260504160349 57 22 4.3 0.0 0.00 0.02 0.00 70 1059.2
20260504160243 57 90 2.6 0.0 0.00 0.02 0.00 71 1059.2
20260504160137 57 45 2.6 0.0 0.00 0.02 0.00 70 1059.2
20260504151147 61 45 0.0 0.0 0.00 0.08 0.00 68 1059.0
20260504151035 61 0 2.6 0.0 0.00 0.08 0.00 68 1059.0
20260504150913 61 45 5.2 0.0 0.00 0.08 0.00 69 1059.0
20260504150759 61 67 3.5 0.0 0.00 0.08 0.00 69 1059.0
20260504150631 61 22 1.7 0.0 0.00 0.08 0.00 69 1059.0
20260504150528 60 67 6.1 0.0 0.00 0.08 0.00 70 1059.0
20260504150420 60 67 2.6 0.0 0.00 0.08 0.00 69 1058.9
20260504150309 60 22 6.1 0.0 0.00 0.08 0.00 70 1059.1
20260504150203 60 22 5.2 0.0 0.00 0.08 0.00 70 1059.0
20260504141313 59 45 2.6 0.0 0.00 0.10 0.00 73 1059.1
20260504141159 59 22 4.3 0.0 0.00 0.10 0.00 73 1059.2
20260504141038 59 90 0.0 0.0 0.00 0.10 0.00 73 1059.3
20260504140917 59 45 0.0 0.0 0.00 0.10 0.00 73 1059.4
20260504140806 59 0 4.3 0.0 0.00 0.10 0.00 73 1059.3
20260504140651 58 67 2.6 0.0 0.00 0.10 0.00 73 1059.4
20260504140529 58 67 5.2 0.0 0.00 0.10 0.00 73 1059.4
20260504140400 58 45 6.1 0.0 0.00 0.10 0.00 73 1059.4
20260504140247 58 22 2.6 0.0 0.00 0.10 0.00 73 1059.4
20260504140126 58 22 7.0 0.0 0.00 0.10 0.00 73 1059.4
20260504130813 60 45 0.0 0.0 0.00 0.43 0.00 72 1059.4
20260504130708 60 45 5.2 0.0 0.00 0.43 0.00 73 1059.4
20260504130601 60 67 6.1 0.0 0.00 0.43 0.00 73 1059.4
20260504130449 60 67 5.2 0.0 0.00 0.43 0.00 73 1059.4
20260504130328 60 45 9.6 0.0 0.00 0.43 0.00 73 1059.3
20260504130214 59 45 6.1 0.0 0.00 0.43 0.00 74 1059.3
20260504120304 55 0 5.2 0.0 0.00 0.43 0.00 82 1059.5
20260504120156 54 0 2.6 0.0 0.00 0.43 0.00 82 1059.6
20260504110642 54 22 0.9 0.0 0.00 0.43 0.00 84 1059.7
20260504110537 54 45 0.0 0.0 0.00 0.43 0.00 84 1059.6
20260504110425 54 0 0.0 0.0 0.00 0.43 0.00 84 1059.7
20260504110317 54 45 0.0 0.0 0.00 0.43 0.00 84 1059.7
20260504110158 54 45 5.2 0.0 0.00 0.43 0.00 84 1059.7
20260504100503 55 45 2.6 0.0 0.00 0.43 0.00 84 1059.4
20260504100334 55 67 0.0 0.0 0.00 0.43 0.00 83 1059.4
20260504100222 55 22 0.9 0.0 0.00 0.43 0.00 83 1059.4
20260504100117 55 22 4.3 0.0 0.00 0.43 0.00 83 1059.4
20260504090108 56 22 3.5 0.0 0.00 0.43 0.00 80 1059.1
20260504081852 58 90 0.0 0.0 0.00 0.43 0.00 80 1058.5
20260504081739 58 90 0.0 0.0 0.00 0.43 0.00 80 1058.6
20260504081618 58 90 0.0 0.0 0.00 0.43 0.00 80 1058.6
20260504081505 58 90 0.0 0.0 0.00 0.43 0.00 81 1058.5
20260504081352 58 90 0.0 0.0 0.00 0.43 0.00 81 1058.6
20260504081238 58 90 0.0 0.0 0.00 0.43 0.00 81 1058.5
20260504081117 57 90 0.0 0.0 0.00 0.43 0.00 81 1058.5
20260504081003 57 90 0.0 0.0 0.00 0.43 0.00 81 1058.5
20260504080835 57 90 0.0 0.0 0.00 0.43 0.00 81 1058.5
20260504080722 57 90 2.6 0.0 0.00 0.43 0.00 82 1058.3
20260504080616 57 112 2.6 0.0 0.00 0.43 0.00 82 1058.4
20260504080504 57 112 0.0 0.0 0.00 0.43 0.00 82 1058.4
20260504080350 57 112 0.0 0.0 0.00 0.43 0.00 82 1058.4
20260504080229 57 112 0.0 0.0 0.00 0.43 0.00 82 1058.4
20260504080117 56 112 0.0 0.0 0.00 0.43 0.00 82 1058.4
20260504070302 53 45 0.0 0.0 0.00 0.43 0.00 87 1058.3
20260504070158 53 45 0.0 0.0 0.00 0.43 0.00 87 1058.3
20260504060158 52 67 0.0 0.0 0.00 0.43 0.00 89 1057.8
20260504050506 52 292 99.1 0.0 0.00 0.43 0.00 91 1057.4
20260504045821 52 292 0.0 0.0 0.00 0.43 0.00 91 1057.1
20260504045707 52 292 0.0 0.0 0.00 0.43 0.00 91 1057.3
20260504045538 51 292 0.0 0.0 0.00 0.43 0.00 91 1057.1
20260504045418 51 292 0.0 0.0 0.00 0.43 0.00 91 1057.2
20260504045314 51 292 0.0 0.0 0.00 0.43 0.00 91 1057.1
20260504045207 51 292 0.0 0.0 0.00 0.43 0.00 91 1057.2
20260504045053 51 292 0.0 0.0 0.00 0.43 0.00 91 1057.3
20260504044932 51 292 0.0 0.0 0.00 0.43 0.00 91 1057.3
20260504044804 51 292 0.0 0.0 0.00 0.43 0.00 91 1057.3
20260504044650 51 292 0.0 0.0 0.00 0.43 0.00 91 1057.3
20260504044539 51 292 0.0 0.0 0.00 0.43 0.00 91 1057.2
20260504044432 51 292 0.0 0.0 0.00 0.43 0.00 91 1057.3
20260504043930 51 292 99.1 0.0 0.00 0.43 0.00 91 1057.2
20260504043301 51 292 99.1 0.0 0.00 0.43 0.00 91 1057.1
20260504042630 51 292 4.3 0.0 0.00 0.43 0.00 91 1057.4
20260504042437 51 337 99.1 0.0 0.00 0.43 0.00 91 1057.1
20260504041751 51 337 99.1 0.0 0.00 0.43 0.00 91 1056.9
20260504041121 51 337 0.0 0.0 0.00 0.43 0.00 91 1056.9
20260504040958 51 337 0.0 0.0 0.00 0.43 0.00 91 1056.9
20260504040824 51 337 0.0 0.0 0.00 0.43 0.00 91 1056.9
20260504040717 51 337 0.0 0.0 0.00 0.43 0.00 91 1056.9
20260504040556 51 337 0.0 0.0 0.00 0.43 0.00 91 1056.9
20260504040434 51 337 0.0 0.0 0.00 0.43 0.00 91 1056.8
20260504040321 51 337 0.0 0.0 0.00 0.43 0.00 91 1056.8
20260504040201 51 337 0.0 0.0 0.00 0.43 0.00 91 1056.8
20260504040047 50 337 0.0 0.0 0.00 0.43 0.00 91 1056.8
20260504035928 51 337 0.0 0.0 0.00 0.43 0.00 91 1056.9
20260504035813 50 337 0.0 0.0 0.00 0.43 0.00 91 1056.8
20260504035652 51 337 0.0 0.0 0.00 0.43 0.00 91 1056.8
20260504035539 50 337 0.0 0.0 0.00 0.43 0.00 91 1056.7
20260504035427 51 337 0.0 0.0 0.00 0.43 0.00 91 1056.7
20260504035323 51 337 0.0 0.0 0.00 0.43 0.00 91 1056.7
20260504035215 51 337 0.0 0.0 0.00 0.43 0.00 91 1056.7
20260504035039 51 337 0.0 0.0 0.00 0.43 0.00 91 1056.8
20260504034935 51 337 0.0 0.0 0.00 0.43 0.00 91 1056.8
20260504034828 51 0 0.0 0.0 0.00 0.43 0.00 91 1056.9
20260504034707 51 0 0.0 0.0 0.00 0.43 0.00 91 1056.8
20260504034545 51 0 0.0 0.0 0.00 0.43 0.00 91 1056.8
20260504034425 51 0 0.0 0.0 0.00 0.43 0.00 91 1056.9
20260504034321 51 0 0.0 0.0 0.00 0.43 0.00 91 1056.9
20260504034216 51 337 0.0 0.0 0.00 0.43 0.00 91 1056.9
20260504034112 51 337 0.0 0.0 0.00 0.43 0.00 91 1056.9
20260504034005 51 337 0.0 0.0 0.00 0.43 0.00 91 1057.0
20260504033859 51 337 0.0 0.0 0.00 0.43 0.00 91 1056.9
20260504033746 51 337 0.0 0.0 0.00 0.43 0.00 91 1057.0
20260504033625 51 337 0.0 0.0 0.00 0.43 0.00 91 1057.0
20260504033505 51 337 0.0 0.0 0.00 0.43 0.00 91 1056.9
20260504033352 51 337 0.0 0.0 0.00 0.43 0.00 91 1057.1
20260504033247 51 337 0.0 0.0 0.00 0.43 0.00 91 1056.9
20260504033139 51 337 0.0 0.0 0.00 0.43 0.00 91 1057.0
20260504033027 51 337 0.0 0.0 0.00 0.43 0.00 91 1056.9
20260504032907 51 337 0.0 0.0 0.00 0.43 0.00 91 1056.9
20260504032752 51 337 0.0 0.0 0.00 0.43 0.00 91 1056.8
20260504032640 51 337 0.0 0.0 0.00 0.43 0.00 91 1056.8
20260504032535 51 337 0.0 0.0 0.00 0.43 0.00 91 1056.9
20260504032422 51 337 0.0 0.0 0.00 0.43 0.00 91 1056.8
20260504032308 51 0 0.0 0.0 0.00 0.43 0.00 91 1056.8
20260504032155 51 0 0.0 0.0 0.00 0.43 0.00 91 1056.8
20260504032043 51 0 0.0 0.0 0.00 0.43 0.00 91 1056.7
20260504031938 51 22 0.0 0.0 0.00 0.43 0.00 91 1056.8
20260504031833 51 22 0.0 0.0 0.00 0.43 0.00 91 1056.8
20260504031719 51 0 0.0 0.0 0.00 0.43 0.00 91 1056.7
20260504031600 51 337 0.0 0.0 0.00 0.43 0.00 91 1056.8
20260504031455 51 337 0.0 0.0 0.00 0.43 0.00 91 1056.7
20260504031349 51 337 0.0 0.0 0.00 0.43 0.00 91 1056.7
20260504031235 51 22 0.0 0.0 0.00 0.43 0.00 91 1056.7
20260504031123 51 0 0.0 0.0 0.00 0.43 0.00 91 1056.7
20260504031017 51 0 0.0 0.0 0.00 0.43 0.00 91 1056.7
20260504030858 51 22 0.0 0.0 0.00 0.43 0.00 91 1056.5
20260504030750 51 22 0.9 0.0 0.00 0.43 0.00 91 1056.7
20260504030638 51 337 0.0 0.0 0.00 0.43 0.00 91 1056.7
20260504030533 51 337 0.0 0.0 0.00 0.43 0.00 91 1056.6
20260504030428 51 337 0.0 0.0 0.00 0.43 0.00 91 1056.7
20260504030314 51 337 0.0 0.0 0.00 0.43 0.00 91 1056.5
20260504030200 51 0 0.0 0.0 0.00 0.43 0.00 91 1056.6
20260504030031 51 0 0.0 0.0 0.00 0.43 0.00 92 1056.6
20260504025918 51 0 0.0 0.0 0.00 0.61 0.00 92 1056.5
20260504025805 51 0 0.0 0.0 0.00 0.61 0.00 92 1056.6
20260504025636 51 0 0.0 0.0 0.00 0.61 0.00 91 1056.7
20260504025523 51 337 0.0 0.0 0.00 0.61 0.00 92 1056.6
20260504025410 51 337 0.0 0.0 0.00 0.61 0.00 92 1056.6
20260504025305 51 337 0.0 0.0 0.00 0.61 0.00 92 1056.6
20260504025151 51 337 0.0 0.0 0.00 0.61 0.00 92 1056.6
20260504025030 51 315 0.0 0.0 0.00 0.61 0.00 92 1056.7
20260504024917 51 337 0.0 0.0 0.00 0.61 0.00 92 1056.8
20260504024756 51 337 0.0 0.0 0.00 0.61 0.00 92 1056.8
20260504024635 51 337 0.0 0.0 0.00 0.61 0.00 92 1056.8
20260504024507 52 337 0.0 0.0 0.00 0.61 0.00 92 1056.8
20260504024401 52 337 0.0 0.0 0.00 0.61 0.00 92 1056.8
20260504024246 52 337 0.0 0.0 0.00 0.61 0.00 92 1056.8
20260504024120 52 337 0.0 0.0 0.00 0.61 0.00 92 1056.8
20260504024012 52 337 0.0 0.0 0.00 0.61 0.00 92 1056.8
20260504023859 52 337 0.0 0.0 0.00 0.61 0.00 92 1056.8
20260504023747 52 337 0.0 0.0 0.00 0.61 0.00 92 1056.7
20260504023636 52 337 0.0 0.0 0.00 0.61 0.00 92 1056.7
20260504023530 52 337 0.0 0.0 0.00 0.61 0.00 92 1056.7
20260504023415 52 337 0.0 0.0 0.00 0.61 0.00 92 1056.6
20260504023255 52 0 0.0 0.0 0.00 0.61 0.00 92 1056.6
20260504023141 52 337 0.0 0.0 0.00 0.61 0.00 92 1056.6
20260504023027 52 337 0.0 0.0 0.00 0.61 0.00 92 1056.6
20260504022906 52 0 0.0 0.0 0.00 0.61 0.00 92 1056.6
20260504022745 52 0 0.0 0.0 0.00 0.61 0.00 92 1056.6
20260504022632 52 337 0.0 0.0 0.00 0.61 0.00 92 1056.5
20260504022518 52 337 0.0 0.0 0.00 0.61 0.00 92 1056.5
20260504022400 52 0 0.0 0.0 0.00 0.61 0.00 92 1056.5
20260504022252 52 315 0.0 0.0 0.00 0.61 0.00 92 1056.6
20260504022140 52 315 0.0 0.0 0.00 0.61 0.00 92 1056.6
20260504022035 52 337 0.0 0.0 0.00 0.61 0.00 92 1056.6
20260504021930 52 337 0.0 0.0 0.00 0.61 0.00 92 1056.6
20260504021825 52 315 0.0 0.0 0.00 0.61 0.00 92 1056.6
20260504021707 52 315 0.9 0.0 0.00 0.61 0.00 92 1056.6
20260504021558 52 315 0.0 0.0 0.00 0.61 0.00 92 1056.5
20260504021437 52 337 0.0 0.0 0.00 0.61 0.00 92 1056.5
20260504021318 52 315 0.0 0.0 0.00 0.61 0.00 92 1056.6
20260504021210 52 315 0.0 0.0 0.00 0.61 0.00 92 1056.6
20260504021049 52 337 0.0 0.0 0.00 0.61 0.00 92 1056.6
20260504020928 52 315 0.0 0.0 0.00 0.61 0.00 92 1056.6
20260504020758 52 337 0.0 0.0 0.00 0.61 0.00 92 1056.6
20260504020637 52 0 0.9 0.0 0.00 0.61 0.00 92 1056.5
20260504020527 52 0 0.0 0.0 0.00 0.61 0.00 92 1056.5
20260504020419 52 315 0.0 0.0 0.00 0.61 0.00 92 1056.5
20260504020306 52 315 0.0 0.0 0.00 0.61 0.00 92 1056.6
20260504020153 52 0 0.0 0.0 0.00 0.61 0.00 92 1056.5
20260504020040 52 337 0.0 0.0 0.00 0.61 0.00 92 1056.5
20260504015927 52 337 0.0 0.0 0.00 0.61 0.00 92 1056.5
20260504015822 52 315 0.0 0.0 0.00 0.61 0.00 92 1056.5
20260504015718 52 315 2.6 0.0 0.00 0.61 0.00 92 1056.5
20260504015612 52 292 0.9 0.0 0.00 0.61 0.00 92 1056.4
20260504015450 52 315 0.0 0.0 0.00 0.61 0.00 92 1056.4
20260504015320 52 315 0.0 0.0 0.00 0.61 0.00 92 1056.4
20260504015151 52 315 0.0 0.0 0.00 0.61 0.00 92 1056.4
20260504015045 52 315 0.0 0.0 0.00 0.61 0.00 92 1056.4
20260504014935 52 315 0.0 0.0 0.00 0.61 0.00 92 1056.4
20260504014827 52 315 0.0 0.0 0.00 0.61 0.00 92 1056.4
20260504014658 52 315 0.0 0.0 0.00 0.61 0.00 92 1056.4
20260504014553 52 315 0.0 0.0 0.00 0.61 0.00 92 1056.4
20260504014440 52 0 0.0 0.0 0.00 0.61 0.00 92 1056.4
20260504014319 52 315 0.0 0.0 0.00 0.61 0.00 92 1056.4
20260504014205 52 315 0.0 0.0 0.00 0.61 0.00 92 1056.4
20260504014044 52 315 0.0 0.0 0.00 0.61 0.00 92 1056.4
20260504013931 52 315 0.0 0.0 0.00 0.61 0.00 92 1056.4
20260504013818 52 315 4.3 0.0 0.00 0.61 0.00 92 1056.4
20260504013711 52 292 1.7 0.0 0.00 0.61 0.00 92 1056.4
20260504013551 52 292 0.0 0.0 0.00 0.61 0.00 92 1056.5
20260504013447 52 315 0.0 0.0 0.00 0.61 0.00 92 1056.4
20260504013323 52 315 0.0 0.0 0.00 0.61 0.00 92 1056.4
20260504013209 52 315 0.0 0.0 0.00 0.61 0.00 92 1056.4
20260504013057 52 315 0.0 0.0 0.00 0.61 0.00 92 1056.4
20260504012941 52 292 0.0 0.0 0.00 0.61 0.00 92 1056.5
20260504012828 52 315 0.0 0.0 0.00 0.61 0.00 92 1056.5
20260504012714 52 315 0.0 0.0 0.00 0.61 0.00 92 1056.4
20260504012553 52 337 0.0 0.0 0.00 0.61 0.00 92 1056.5
20260504012438 52 337 0.0 0.0 0.00 0.61 0.00 92 1056.4
20260504012319 52 337 0.0 0.0 0.00 0.61 0.00 92 1056.5
20260504012205 52 315 0.0 0.0 0.00 0.61 0.00 92 1056.5
20260504012053 52 315 0.0 0.0 0.00 0.61 0.00 92 1056.4
20260504011947 52 315 0.0 0.0 0.00 0.61 0.00 92 1056.4
20260504011834 52 315 0.0 0.0 0.00 0.61 0.00 92 1056.4
20260504011705 52 0 0.0 0.0 0.00 0.61 0.00 92 1056.3
20260504011544 52 0 0.0 0.0 0.00 0.61 0.00 92 1056.3
20260504011421 52 337 0.0 0.0 0.00 0.61 0.00 92 1056.3
20260504011300 52 337 0.9 0.0 0.00 0.61 0.00 92 1056.3
20260504011138 52 337 2.6 0.0 0.00 0.61 0.00 92 1056.4
20260504011032 52 292 0.0 0.0 0.00 0.61 0.00 92 1056.3
20260504010926 52 292 0.0 0.0 0.00 0.61 0.00 92 1056.3
20260504010804 52 292 2.6 0.0 0.00 0.61 0.00 92 1056.4
20260504010651 52 292 0.0 0.0 0.00 0.61 0.00 92 1056.3
20260504010537 52 315 0.0 0.0 0.00 0.61 0.00 92 1056.3
20260504010432 52 292 0.9 0.0 0.00 0.61 0.00 92 1056.3
20260504010327 52 270 0.0 0.0 0.00 0.61 0.00 92 1056.2
20260504005906 52 292 0.0 0.0 0.00 0.61 0.00 92 1056.2
20260504005737 52 292 0.0 0.0 0.00 0.61 0.00 92 1056.2
20260504005624 52 315 0.0 0.0 0.00 0.61 0.00 92 1056.2
20260504005511 52 270 5.2 0.0 0.00 0.61 0.00 92 1056.1
20260504005407 53 337 0.0 0.0 0.00 0.61 0.00 92 1056.2
20260504005243 53 292 0.0 0.0 0.00 0.61 0.00 92 1056.1
20260504005130 53 315 2.6 0.0 0.00 0.61 0.00 92 1056.1
20260504005009 53 315 1.7 0.0 0.00 0.61 0.00 92 1056.0
20260504004904 53 315 0.0 0.0 0.00 0.61 0.00 92 1056.0
20260504004742 53 315 1.7 0.0 0.00 0.61 0.00 92 1056.1
20260504004628 53 315 0.0 0.0 0.00 0.61 0.00 92 1056.2
20260504004515 53 315 0.9 0.0 0.00 0.61 0.00 92 1056.2
20260504004403 53 337 3.5 0.0 0.00 0.61 0.00 92 1056.2
20260504004249 53 315 0.0 0.0 0.00 0.61 0.00 92 1056.1
20260504004128 53 315 0.0 0.0 0.00 0.61 0.00 92 1056.1
20260504004015 53 315 1.7 0.0 0.00 0.61 0.00 92 1056.1
20260504003900 53 292 0.9 0.0 0.00 0.61 0.00 92 1056.1
20260504003742 53 315 0.0 0.0 0.00 0.61 0.00 92 1056.1
20260504003633 53 315 0.0 0.0 0.00 0.61 0.00 92 1056.0
20260504003505 53 315 0.9 0.0 0.00 0.61 0.00 92 1056.0
20260504003352 53 315 5.2 0.0 0.00 0.61 0.00 92 1056.0
20260504003238 53 315 0.0 0.0 0.00 0.61 0.00 92 1056.0
20260504003125 53 337 6.1 0.0 0.00 0.61 0.00 92 1056.0
20260504003004 53 315 0.0 0.0 0.00 0.61 0.00 92 1056.0
20260504002843 53 337 1.7 0.0 0.00 0.61 0.00 92 1056.0
20260504002730 53 315 1.7 0.0 0.00 0.61 0.00 92 1056.0
20260504002625 53 315 1.7 0.0 0.00 0.61 0.00 92 1056.0
20260504002514 53 315 7.8 0.0 0.00 0.61 0.00 92 1056.0
20260504002407 53 292 7.0 0.0 0.00 0.61 0.00 92 1056.0
20260504002255 53 315 2.6 0.0 0.00 0.61 0.00 92 1056.0
20260504002151 53 270 0.0 0.0 0.00 0.61 0.00 92 1056.0
20260504002045 53 292 1.7 0.0 0.00 0.61 0.00 92 1055.9
20260504001939 53 292 0.0 0.0 0.00 0.61 0.00 92 1055.9
20260504001834 53 292 6.1 0.0 0.00 0.61 0.00 92 1056.0
20260504001721 53 315 7.0 0.0 0.00 0.61 0.00 92 1056.0
20260504001606 53 315 0.0 0.0 0.00 0.61 0.00 92 1056.0
20260504001446 53 315 7.0 0.0 0.00 0.61 0.00 92 1055.9
20260504001333 53 292 4.3 0.0 0.00 0.61 0.00 92 1055.9
20260504001219 53 292 3.5 0.0 0.00 0.61 0.00 92 1055.9
20260504001108 53 292 3.5 0.0 0.00 0.61 0.00 93 1055.9
20260504001001 53 315 1.7 0.0 0.00 0.61 0.00 92 1056.0
20260504000840 53 292 0.0 0.0 0.00 0.61 0.00 92 1055.8
20260504000721 54 292 5.2 0.0 0.00 0.61 0.00 92 1055.8
20260504000613 54 315 9.6 0.0 0.00 0.61 0.00 93 1055.8
20260504000504 54 315 1.7 0.0 0.00 0.61 0.00 92 1055.8
20260504000357 54 315 3.5 0.0 0.00 0.61 0.00 92 1055.8
20260504000253 54 270 3.5 0.0 0.00 0.61 0.00 92 1055.7
20260504000146 54 292 4.3 0.0 0.00 0.61 0.00 92 1055.8
20260504000024 54 315 0.0 0.0 0.00 0.61 0.00 92 1055.7
20260503235904 54 270 0.0 0.0 0.00 0.61 0.00 92 1055.8
20260503235753 54 292 0.0 0.0 0.00 0.61 0.00 92 1055.7
20260503235646 54 292 0.0 0.0 0.00 0.61 0.00 92 1055.7
20260503235540 54 315 6.1 0.0 0.00 0.61 0.00 92 1055.7
20260503235421 54 315 1.7 0.0 0.00 0.61 0.00 92 1055.7
20260503235314 54 315 0.0 0.0 0.00 0.61 0.00 92 1055.7
20260503235201 54 337 5.2 0.0 0.00 0.61 0.00 92 1055.7
20260503235048 54 315 0.0 0.0 0.00 0.61 0.00 92 1055.7
20260503234934 54 292 0.0 0.0 0.00 0.61 0.00 92 1055.7
20260503234823 54 315 5.2 0.0 0.00 0.61 0.00 92 1055.7
20260503234717 54 315 5.2 0.0 0.00 0.61 0.00 92 1055.7
20260503234603 54 292 5.2 0.0 0.00 0.61 0.00 92 1055.7
20260503234451 54 337 0.0 0.0 0.00 0.61 0.00 92 1055.8
20260503234338 54 292 5.2 0.0 0.00 0.61 0.00 92 1055.7
20260503234225 54 270 1.7 0.0 0.00 0.61 0.00 92 1055.8
20260503234118 54 315 0.0 0.0 0.00 0.61 0.00 92 1055.8
20260503234007 54 270 0.9 0.0 0.00 0.61 0.00 92 1055.7
20260503233845 54 292 5.2 0.0 0.00 0.61 0.00 92 1055.8
20260503233725 54 315 3.5 0.0 0.00 0.61 0.00 92 1055.8
20260503233619 54 225 0.0 0.0 0.00 0.61 0.00 92 1055.8
20260503233506 54 292 12.2 0.0 0.00 0.61 0.00 92 1055.8
20260503233401 55 292 7.0 0.0 0.00 0.61 0.00 92 1055.8
20260503233239 55 270 4.3 0.0 0.00 0.61 0.00 92 1055.8
20260503233118 55 270 5.2 0.0 0.00 0.61 0.00 92 1055.8
20260503233004 55 292 7.8 0.0 0.00 0.61 0.00 92 1055.7
20260503232845 55 292 0.9 0.0 0.00 0.61 0.00 92 1055.7
20260503232740 55 292 0.0 0.0 0.00 0.61 0.00 92 1055.7
20260503232636 55 315 0.0 0.0 0.00 0.61 0.00 92 1055.7
20260503232528 55 315 0.0 0.0 0.00 0.61 0.00 92 1055.7
20260503232416 55 292 0.0 0.0 0.00 0.61 0.00 92 1055.7
20260503232311 55 292 4.3 0.0 0.00 0.61 0.00 92 1055.7
20260503232206 55 315 3.5 0.0 0.00 0.61 0.00 92 1055.7
20260503232053 55 315 0.0 0.0 0.00 0.61 0.00 92 1055.6
20260503231947 55 292 0.0 0.0 0.00 0.61 0.00 92 1055.7
20260503231826 55 292 0.0 0.0 0.00 0.61 0.00 91 1055.7
20260503231713 55 315 10.4 0.0 0.00 0.61 0.00 91 1055.6
20260503231551 55 315 6.1 0.0 0.00 0.61 0.00 91 1055.6
20260503231430 55 315 6.1 0.0 0.00 0.61 0.00 91 1055.6
20260503231310 55 315 0.9 0.0 0.00 0.61 0.00 91 1055.5
20260503231205 55 292 9.6 0.0 0.00 0.61 0.00 91 1055.5
20260503231051 55 292 3.5 0.0 0.00 0.61 0.00 91 1055.5
20260503230929 55 315 4.3 0.0 0.00 0.61 0.00 91 1055.5
20260503230811 55 315 3.5 0.0 0.00 0.61 0.00 91 1055.5
20260503230704 55 315 3.5 0.0 0.00 0.61 0.00 91 1055.5
20260503230550 55 292 6.1 0.0 0.00 0.61 0.00 92 1055.5
20260503230431 55 292 6.1 0.0 0.00 0.61 0.00 92 1055.5
20260503230316 55 292 3.5 0.0 0.00 0.61 0.00 92 1055.4
20260503230155 55 315 6.1 0.0 0.00 0.61 0.00 92 1055.4
20260503230036 55 270 5.2 0.0 0.00 0.61 0.00 92 1055.5
20260503225931 55 292 0.9 0.0 0.00 0.61 0.00 92 1055.4
20260503225824 55 270 6.1 0.0 0.00 0.61 0.00 92 1055.4
20260503225710 55 292 4.3 0.0 0.00 0.61 0.00 92 1055.5
20260503225557 55 292 9.6 0.0 0.00 0.61 0.00 92 1055.5
20260503225447 55 270 4.3 0.0 0.00 0.61 0.00 92 1055.5
20260503225341 55 270 1.7 0.0 0.00 0.61 0.00 92 1055.6
20260503225236 55 292 5.2 0.0 0.00 0.61 0.00 92 1055.5
20260503225130 55 292 5.2 0.0 0.00 0.61 0.00 92 1055.5
20260503225025 55 292 7.8 0.0 0.00 0.61 0.00 93 1055.6
20260503224919 55 270 0.0 0.0 0.00 0.61 0.00 93 1055.5
20260503224758 55 247 5.2 0.0 0.00 0.61 0.00 92 1055.5
20260503224636 55 315 9.6 0.0 0.00 0.61 0.00 92 1055.5
20260503224509 55 270 4.3 0.0 0.00 0.61 0.00 93 1055.5
20260503224404 55 270 6.1 0.0 0.00 0.61 0.00 93 1055.5
20260503224257 55 247 13.0 0.0 0.00 0.61 0.00 93 1055.5
20260503224145 55 315 7.8 0.0 0.00 0.61 0.00 93 1055.5
20260503224034 55 292 7.0 0.0 0.00 0.61 0.00 93 1055.5
20260503223918 55 292 8.7 0.0 0.00 0.61 0.00 93 1055.4
20260503223813 55 292 5.2 0.0 0.00 0.61 0.00 93 1055.4
20260503223659 55 315 10.4 0.0 0.00 0.61 0.00 93 1055.4
20260503223547 55 22 2.6 0.0 0.00 0.61 0.00 93 1055.4
20260503223434 55 270 5.2 0.0 0.00 0.61 0.00 93 1055.4
20260503223321 55 337 3.5 0.0 0.00 0.61 0.00 93 1055.4
20260503223216 55 292 5.2 0.0 0.00 0.61 0.00 93 1055.3
20260503223054 55 337 6.1 0.0 0.00 0.61 0.00 93 1055.3
20260503222942 55 337 4.3 0.0 0.00 0.61 0.00 93 1055.4
20260503222828 55 270 6.1 0.0 0.00 0.61 0.00 93 1055.4
20260503222715 55 315 7.0 0.0 0.00 0.61 0.00 93 1055.3
20260503222603 55 315 0.9 0.0 0.00 0.61 0.00 93 1055.2
20260503222449 55 315 3.5 0.0 0.00 0.61 0.00 93 1055.3
20260503222338 55 270 8.7 0.0 0.00 0.61 0.00 93 1055.3
20260503222231 55 292 5.2 0.0 0.00 0.61 0.00 93 1055.3
20260503222125 55 292 12.2 0.0 0.00 0.61 0.00 93 1055.3
20260503222007 55 270 1.7 0.0 0.00 0.61 0.00 93 1055.3
20260503221859 55 292 3.5 0.0 0.00 0.61 0.00 93 1055.3
20260503221737 55 315 13.0 0.0 0.00 0.61 0.00 93 1055.3
20260503221616 56 292 5.2 0.0 0.00 0.61 0.00 93 1055.3
20260503221455 56 292 5.2 0.0 0.00 0.61 0.00 93 1055.3
20260503221318 56 292 9.6 0.0 0.00 0.61 0.00 93 1055.3
20260503221149 56 270 5.2 0.0 0.00 0.61 0.00 93 1055.3
20260503221037 56 315 0.0 0.0 0.00 0.61 0.00 93 1055.2
20260503220930 56 225 7.0 0.0 0.00 0.61 0.00 93 1055.2
20260503220802 56 292 5.2 0.0 0.00 0.61 0.00 93 1055.3
20260503220659 56 315 7.0 0.0 0.00 0.61 0.00 93 1055.2
20260503220553 56 292 5.2 0.0 0.00 0.61 0.00 93 1055.3
20260503220438 56 270 5.2 0.0 0.00 0.61 0.00 93 1055.4
20260503220324 56 270 0.9 0.0 0.00 0.61 0.00 93 1055.3
20260503220212 56 292 6.1 0.0 0.00 0.61 0.00 93 1055.3
20260503220058 56 292 3.5 0.0 0.00 0.61 0.00 93 1055.3
20260503215946 56 315 6.1 0.0 0.00 0.61 0.00 93 1055.3
20260503215840 56 270 6.1 0.0 0.00 0.61 0.00 93 1055.2
20260503215728 56 292 3.5 0.0 0.00 0.61 0.00 93 1055.3
20260503215606 56 292 0.0 0.0 0.00 0.61 0.00 93 1055.2
20260503215453 56 315 6.1 0.0 0.00 0.61 0.00 93 1055.2
20260503215348 56 315 0.0 0.0 0.00 0.61 0.00 93 1055.2
20260503215227 56 270 5.2 0.0 0.00 0.61 0.00 93 1055.2
20260503215115 56 225 4.3 0.0 0.00 0.61 0.00 93 1055.2
20260503215011 56 292 4.3 0.0 0.00 0.61 0.00 93 1055.2
20260503214905 56 315 7.8 0.0 0.00 0.61 0.00 93 1055.1
20260503214759 56 247 0.9 0.0 0.00 0.61 0.00 93 1055.1
20260503214646 56 292 5.2 0.0 0.00 0.61 0.00 93 1055.1
20260503214541 56 292 3.5 0.0 0.00 0.61 0.00 93 1055.0
20260503214435 56 315 6.1 0.0 0.00 0.61 0.00 93 1055.1
20260503214258 56 292 3.5 0.0 0.00 0.61 0.00 93 1055.0
20260503214154 56 315 8.7 0.0 0.00 0.61 0.00 93 1055.1
20260503214049 56 315 7.0 0.0 0.00 0.61 0.00 93 1055.1
20260503213943 56 292 9.6 0.0 0.00 0.61 0.00 93 1055.1
20260503213822 56 315 7.0 0.0 0.00 0.61 0.00 93 1055.1
20260503213701 56 270 3.5 0.0 0.00 0.61 0.00 93 1055.1
20260503213556 56 292 8.7 0.0 0.00 0.61 0.00 93 1055.1
20260503213450 56 315 6.1 0.0 0.00 0.61 0.00 93 1055.1
20260503213322 56 292 0.0 0.0 0.00 0.61 0.00 93 1055.1
20260503213208 56 292 7.0 0.0 0.00 0.61 0.00 93 1055.1
20260503213103 56 292 3.5 0.0 0.00 0.61 0.00 93 1055.1
20260503212950 56 337 5.2 0.0 0.00 0.61 0.00 93 1055.1
20260503212831 56 270 0.0 0.0 0.00 0.61 0.00 93 1055.0
20260503212724 56 315 0.0 0.0 0.00 0.61 0.00 93 1055.0
20260503212611 56 292 11.3 0.0 0.00 0.61 0.00 93 1055.0
20260503212506 57 270 6.1 0.0 0.00 0.61 0.00 93 1055.1
20260503212352 57 315 5.2 0.0 0.00 0.61 0.00 93 1055.0
20260503212233 57 315 5.2 0.0 0.00 0.61 0.00 93 1055.0
20260503212126 57 292 5.2 0.0 0.00 0.61 0.00 93 1055.1
20260503212014 57 292 0.0 0.0 0.00 0.61 0.00 93 1055.0
20260503211908 57 247 6.1 0.0 0.00 0.61 0.00 93 1055.1
20260503211803 57 315 0.0 0.0 0.00 0.61 0.00 93 1055.1
20260503211650 57 292 7.0 0.0 0.00 0.61 0.00 93 1055.2
20260503211539 57 270 3.5 0.0 0.00 0.61 0.00 93 1055.2
20260503211433 57 292 0.0 0.0 0.00 0.61 0.00 93 1055.1
20260503211319 57 292 0.0 0.0 0.00 0.61 0.00 93 1055.1
20260503211159 57 270 0.0 0.0 0.00 0.61 0.00 93 1055.2
20260503211044 57 270 6.1 0.0 0.00 0.61 0.00 93 1055.1
20260503210925 57 315 0.0 0.0 0.00 0.61 0.00 93 1055.2
20260503210818 57 270 8.7 0.0 0.00 0.61 0.00 93 1055.1
20260503210706 57 270 5.2 0.0 0.00 0.61 0.00 93 1055.1
20260503210602 57 292 0.0 0.0 0.00 0.61 0.00 93 1055.1
20260503210457 57 270 0.0 0.0 0.00 0.61 0.00 93 1055.2
20260503210344 57 315 7.0 0.0 0.00 0.61 0.00 93 1055.1
20260503210237 57 292 0.0 0.0 0.00 0.61 0.00 93 1055.2
20260503210132 57 292 0.0 0.0 0.00 0.61 0.00 93 1055.2
20260503210019 57 292 0.0 0.0 0.00 0.61 0.00 93 1055.1
20260503205906 57 270 0.0 0.0 0.00 0.61 0.00 93 1055.2